{"data":{"norad_id":62759,"intl_designator":"2025-015B","name":"STARLINK-33589","alt_names":[],"object_type":"PAYLOAD","status":"ACTIVE","operator":null,"country":"US","launch_date":"2025-01-21","launch_site_code":"AFWTR","launch_vehicle":null,"mission":null,"orbit_class":"UNKNOWN","rcs_meters":null,"size_class":null,"mass_kg":null,"dimensions":null,"purposes":["comms"],"wikipedia_slug":null,"has_3d_model":false,"image_url":null,"decayed_at":null,"tle_current":{"epoch":"2026-09-21T20:38:25.783296Z","epoch_age_seconds":53856,"freshness":"FRESH","line1":"1 62759U 25015B   26264.86002064  .00009740  00000+0  32509-3 0  9999","line2":"2 62759  53.1580 129.9963 0001498 110.1210 249.9953 15.31712477 93775","mean_motion":15.31712477,"eccentricity":0.0001498,"inclination_deg":53.158,"raan_deg":129.9963,"arg_perigee_deg":110.121,"mean_anomaly_deg":249.9953,"bstar":0.00032509,"rev_number":9377,"period_min":94.012422149905,"perigee_km":469.676845988,"apogee_km":471.72875839274,"semimajor_km":6848.8398021904,"source":"CELESTRAK","updated_at":"2026-09-22T09:00:49.660596Z"}}}